Weather History for Flagstaff, AZ

Change the Weather History Date:

Tuesday, February 5, 2013

  Actual Average Record
Temperature  
Mean Temperature 37 °F 31 °F  
Max Temperature 54 °F 44 °F 67 °F (1963)
Min Temperature 19 °F 18 °F -21 °F (1985)
Degree Days  
Heating Degree Days 28 34  
Month to date heating degree days 144 170  
Since 1 July heating degree days 3981 4086  
Cooling Degree Days 0 0  
Month to date cooling degree days 0 0  
Year to date cooling degree days 0 0  
Moisture  
Dew Point 19 °F    
Average Humidity 58    
Maximum Humidity 91    
Minimum Humidity 24    
Precipitation  
Precipitation 0.00 in 0.07 in 2.29 in (1976)
Month to date precipitation T 0.35  
Year to date precipitation 2.64 2.40  
Snow  
Snow 0.00 in 0.80 in 19.90 in (1976)
Month to date snowfall T 4.0  
Since 1 July snowfall 33.0 56.3  
Snow Depth 0.00 in    
Sea Level Pressure  
Sea Level Pressure 30.05 in    
Wind  
Wind Speed 3 mph (SSW)    
Max Wind Speed 15 mph    
Max Gust Speed 20 mph    
Visibility 10 miles    
Events      
T = Trace of Precipitation, MM = Missing Value Source: NWS Daily Summary

Daily Weather History Graph

Daily Weather History Graph

Search for Another Location

Airport:

Trip Planner

Search our weather history database for the weather conditions in past years. The results will help you decide how hot, cold, wet, or windy it might be!

Date:

Astronomy

Feb. 05, 2013 Rise Set
Actual Time 7:22 AM MST 5:59 PM MST
Civil Twilight 6:55 AM MST 6:26 PM MST
Nautical Twilight 6:25 AM MST 6:56 PM MST
Astronomical Twilight 5:56 AM MST 7:25 PM MST
Moon 3:03 AM MST (2/5) 1:24 PM MST (2/5)
Length of Visible Light 11h 30m
Length of Day
10h 37m
Waning Crescent, 26% of the Moon is Illuminated
Feb 5
Waning Crescent
Feb 10
New
Feb 17
First Quarter
Feb 25
Full
Mar 4
Last Quarter

Hourly Weather History & Observations

Time (MST) Temp. Windchill Dew Point Humidity Pressure Visibility Wind Dir Wind Speed Gust Speed Precip Events Conditions
12:57 AM 23.0 °F - 19.0 °F 85% 30.09 in 10.0 mi Calm Calm - N/A   Clear
1:57 AM 21.0 °F - 18.0 °F 88% 30.09 in 10.0 mi Calm Calm - N/A   Clear
2:57 AM 21.0 °F - 18.0 °F 88% 30.08 in 10.0 mi Calm Calm - N/A   Clear
3:57 AM 21.0 °F - 18.0 °F 88% 30.06 in 10.0 mi Calm Calm - N/A   Clear
4:57 AM 19.9 °F - 17.1 °F 89% 30.07 in 10.0 mi Calm Calm - N/A   Clear
5:57 AM 19.9 °F - 17.1 °F 89% 30.09 in 10.0 mi Calm Calm - N/A   Clear
6:57 AM 19.0 °F - 16.0 °F 88% 30.14 in 10.0 mi Calm Calm - N/A   Clear
7:57 AM 21.9 °F - 18.0 °F 85% 30.16 in 10.0 mi Calm Calm - N/A   Clear
8:57 AM 32.0 °F - 23.0 °F 69% 30.14 in 10.0 mi Calm Calm - N/A   Clear
9:57 AM 42.1 °F - 21.0 °F 43% 30.10 in 10.0 mi Calm Calm - N/A   Clear
10:57 AM 48.0 °F - 19.0 °F 32% 30.08 in 10.0 mi Variable 4.6 mph - N/A   Clear
11:57 AM 50.0 °F - 18.0 °F 28% 30.06 in 10.0 mi NNE 6.9 mph - N/A   Clear
12:57 PM 51.1 °F - 21.0 °F 31% 30.03 in 10.0 mi ESE 6.9 mph - N/A   Clear
1:57 PM 53.1 °F - 19.9 °F 27% 29.99 in 10.0 mi Variable 4.6 mph - N/A   Clear
2:57 PM 53.1 °F - 19.0 °F 26% 29.97 in 10.0 mi South 6.9 mph - N/A   Clear
3:57 PM 53.1 °F - 19.0 °F 26% 29.97 in 10.0 mi SSW 12.7 mph - N/A   Clear
4:57 PM 51.1 °F - 16.0 °F 25% 29.98 in 10.0 mi SSW 11.5 mph - N/A   Clear
5:57 PM 45.0 °F 40.1 °F 21.9 °F 40% 30.01 in 10.0 mi SW 9.2 mph - N/A   Clear
6:57 PM 39.0 °F 35.7 °F 18.0 °F 43% 30.06 in 10.0 mi SW 4.6 mph - N/A   Clear
7:57 PM 36.0 °F 30.3 °F 19.9 °F 52% 30.06 in 10.0 mi SW 6.9 mph - N/A   Clear
8:57 PM 30.9 °F - 19.0 °F 61% 30.03 in 10.0 mi Calm Calm - N/A   Clear
9:57 PM 30.0 °F - 21.0 °F 69% 30.00 in 10.0 mi Calm Calm - N/A   Clear
10:57 PM 28.0 °F - 19.0 °F 69% 29.97 in 10.0 mi Calm Calm - N/A   Clear
11:57 PM 27.0 °F - 19.9 °F 75% 29.94 in 10.0 mi Calm Calm - N/A   Clear